| time (UTC) | temp C | wind direction | speed KPH | gust KPH | rain 1hr cm | rain 24hr cm | rain mn cm | humidity % | barometer mb |
| 20260506033916 | 6 | 308 | 6.4 | 0.0 | 0.00 | 0.56 | 0.03 | 93 | 1007.4 |
| 20260506032917 | 6 | 345 | 6.4 | 0.0 | 0.00 | 0.56 | 0.03 | 93 | 1007.5 |
| 20260506031916 | 6 | 240 | 8.0 | 0.0 | 0.00 | 0.56 | 0.03 | 93 | 1007.6 |
| 20260506030917 | 6 | 233 | 6.4 | 0.0 | 0.00 | 0.56 | 0.03 | 93 | 1007.8 |
| 20260506025916 | 6 | 138 | 4.8 | 0.0 | 0.00 | 0.56 | 0.03 | 93 | 1007.8 |
| 20260506024916 | 6 | 340 | 6.4 | 0.0 | 0.00 | 0.56 | 0.03 | 93 | 1008.1 |
| 20260506023916 | 6 | 355 | 0.0 | 0.0 | 0.00 | 0.56 | 0.03 | 93 | 1008.2 |
| 20260506022917 | 6 | 350 | 0.0 | 0.0 | 0.00 | 0.56 | 0.03 | 93 | 1008.3 |
| 20260506021916 | 6 | 233 | 8.0 | 0.0 | 0.00 | 0.56 | 0.03 | 93 | 1008.2 |
| 20260506020916 | 6 | 260 | 4.8 | 0.0 | 0.00 | 0.56 | 0.03 | 93 | 1008.3 |
| 20260506015916 | 6 | 318 | 3.2 | 0.0 | 0.00 | 0.56 | 0.03 | 93 | 1008.3 |
| 20260506014917 | 6 | 318 | 8.0 | 0.0 | 0.00 | 0.56 | 0.03 | 93 | 1008.5 |
| 20260506013917 | 6 | 220 | 4.8 | 0.0 | 0.00 | 0.56 | 0.03 | 93 | 1008.5 |
| 20260506012916 | 7 | 270 | 4.8 | 0.0 | 0.00 | 0.56 | 0.03 | 93 | 1008.7 |
| 20260506011916 | 7 | 320 | 6.4 | 0.0 | 0.00 | 0.56 | 0.03 | 93 | 1008.8 |
| 20260506010916 | 6 | 323 | 6.4 | 0.0 | 0.00 | 0.56 | 0.03 | 93 | 1008.9 |
| 20260506005916 | 6 | 263 | 4.8 | 0.0 | 0.00 | 0.56 | 0.03 | 93 | 1008.8 |
| 20260506004917 | 6 | 355 | 4.8 | 0.0 | 0.00 | 0.56 | 0.03 | 93 | 1008.6 |
| 20260506003916 | 6 | 263 | 3.2 | 0.0 | 0.00 | 0.56 | 0.03 | 93 | 1008.7 |
| 20260506002917 | 6 | 293 | 4.8 | 0.0 | 0.00 | 0.56 | 0.03 | 93 | 1008.7 |
| 20260506001917 | 6 | 230 | 0.0 | 0.0 | 0.00 | 0.56 | 0.03 | 92 | 1008.9 |
| 20260506000916 | 6 | 230 | 0.0 | 0.0 | 0.00 | 0.56 | 0.03 | 92 | 1009.1 |
| 20260505235917 | 6 | 340 | 0.0 | 0.0 | 0.00 | 0.56 | 0.03 | 92 | 1009.2 |
| 20260505234916 | 7 | 340 | 0.0 | 0.0 | 0.00 | 0.56 | 0.03 | 92 | 1009.2 |
| 20260505233916 | 7 | 340 | 0.0 | 0.0 | 0.00 | 0.56 | 0.03 | 92 | 1009.4 |
| 20260505232917 | 7 | 350 | 0.0 | 0.0 | 0.00 | 0.56 | 0.03 | 92 | 1009.5 |
| 20260505231917 | 7 | 323 | 0.0 | 0.0 | 0.00 | 0.56 | 0.03 | 91 | 1009.4 |
| 20260505230917 | 7 | 328 | 0.0 | 0.0 | 0.00 | 0.56 | 0.03 | 91 | 1009.6 |
| 20260505225916 | 7 | 318 | 6.4 | 0.0 | 0.00 | 0.56 | 0.00 | 91 | 1009.6 |
| 20260505224916 | 7 | 198 | 4.8 | 0.0 | 0.00 | 0.56 | 0.00 | 91 | 1009.5 |
| 20260505223917 | 7 | 5 | 0.0 | 0.0 | 0.00 | 0.56 | 0.00 | 91 | 1009.5 |
| 20260505222917 | 8 | 5 | 0.0 | 0.0 | 0.00 | 0.56 | 0.00 | 90 | 1009.5 |
| 20260505221916 | 8 | 3 | 0.0 | 0.0 | 0.00 | 0.56 | 0.00 | 90 | 1009.6 |
| 20260505220916 | 8 | 355 | 0.0 | 0.0 | 0.00 | 0.56 | 0.00 | 90 | 1009.6 |
| 20260505215917 | 8 | 0 | 8.0 | 0.0 | 0.00 | 0.00 | 0.56 | 90 | 1009.7 |
| 20260505214917 | 8 | 330 | 0.0 | 0.0 | 0.00 | 0.00 | 0.56 | 89 | 1009.6 |
| 20260505213917 | 8 | 30 | 0.0 | 0.0 | 0.00 | 0.00 | 0.56 | 89 | 1009.6 |
| 20260505212917 | 9 | 310 | 0.0 | 0.0 | 0.00 | 0.00 | 0.56 | 88 | 1009.7 |
| 20260505211917 | 9 | 358 | 4.8 | 0.0 | 0.00 | 0.00 | 0.56 | 88 | 1009.7 |
| 20260505210917 | 10 | 280 | 0.0 | 0.0 | 0.00 | 0.00 | 0.56 | 88 | 1009.9 |
| 20260505205917 | 10 | 235 | 4.8 | 0.0 | 0.00 | 0.00 | 0.56 | 87 | 1009.8 |
| 20260505204917 | 10 | 238 | 8.0 | 0.0 | 0.00 | 0.00 | 0.56 | 87 | 1009.8 |
| 20260505203917 | 10 | 293 | 6.4 | 0.0 | 0.00 | 0.00 | 0.56 | 87 | 1009.5 |
| 20260505202916 | 10 | 210 | 0.0 | 0.0 | 0.00 | 0.00 | 0.56 | 87 | 1009.4 |
| 20260505201916 | 10 | 203 | 8.0 | 0.0 | 0.00 | 0.00 | 0.56 | 87 | 1009.4 |
| 20260505200917 | 10 | 170 | 6.4 | 0.0 | 0.00 | 0.00 | 0.56 | 87 | 1009.3 |
| 20260505195916 | 10 | 313 | 4.8 | 0.0 | 0.00 | 0.00 | 0.56 | 86 | 1009.3 |
| 20260505194917 | 11 | 205 | 6.4 | 0.0 | 0.00 | 0.00 | 0.56 | 86 | 1009.3 |
| 20260505193916 | 11 | 183 | 4.8 | 0.0 | 0.00 | 0.00 | 0.56 | 87 | 1009.1 |
| 20260505192917 | 11 | 170 | 6.4 | 0.0 | 0.00 | 0.00 | 0.56 | 87 | 1008.9 |
| 20260505191916 | 11 | 243 | 4.8 | 0.0 | 0.00 | 0.00 | 0.56 | 86 | 1008.7 |
| 20260505190917 | 11 | 190 | 6.4 | 0.0 | 0.00 | 0.00 | 0.56 | 87 | 1008.9 |
| 20260505185916 | 11 | 215 | 6.4 | 0.0 | 0.00 | 0.00 | 0.56 | 87 | 1009.0 |
| 20260505184917 | 11 | 215 | 9.7 | 0.0 | 0.00 | 0.00 | 0.56 | 86 | 1009.1 |
| 20260505183916 | 11 | 205 | 6.4 | 0.0 | 0.00 | 0.00 | 0.56 | 86 | 1008.8 |
| 20260505182917 | 11 | 203 | 6.4 | 0.0 | 0.00 | 0.00 | 0.56 | 86 | 1008.7 |
| 20260505181917 | 12 | 210 | 6.4 | 0.0 | 0.00 | 0.00 | 0.56 | 85 | 1008.7 |
| 20260505180916 | 12 | 230 | 8.0 | 0.0 | 0.00 | 0.00 | 0.56 | 84 | 1008.6 |
| 20260505175916 | 12 | 208 | 8.0 | 0.0 | 0.00 | 0.00 | 0.56 | 83 | 1008.5 |
| 20260505174916 | 12 | 210 | 8.0 | 0.0 | 0.00 | 0.00 | 0.56 | 83 | 1008.6 |
| 20260505173917 | 12 | 228 | 0.0 | 0.0 | 0.00 | 0.00 | 0.56 | 83 | 1008.6 |
| 20260505172916 | 12 | 223 | 9.7 | 0.0 | 0.00 | 0.00 | 0.56 | 83 | 1008.6 |
| 20260505171916 | 12 | 210 | 6.4 | 0.0 | 0.00 | 0.00 | 0.56 | 84 | 1008.6 |
| 20260505170916 | 12 | 115 | 6.4 | 0.0 | 0.00 | 0.00 | 0.56 | 84 | 1008.5 |
| 20260505165917 | 12 | 143 | 9.7 | 0.0 | 0.00 | 0.00 | 0.53 | 85 | 1008.6 |
| 20260505164917 | 12 | 175 | 3.2 | 0.0 | 0.00 | 0.00 | 0.53 | 85 | 1008.6 |
| 20260505163916 | 11 | 190 | 6.4 | 0.0 | 0.00 | 0.00 | 0.53 | 85 | 1008.6 |
| 20260505162916 | 11 | 180 | 4.8 | 0.0 | 0.00 | 0.00 | 0.53 | 85 | 1008.5 |
| 20260505161916 | 11 | 180 | 4.8 | 0.0 | 0.00 | 0.00 | 0.53 | 84 | 1008.4 |
| 20260505160917 | 12 | 185 | 0.0 | 0.0 | 0.00 | 0.00 | 0.53 | 83 | 1008.4 |
| 20260505152916 | 15 | 220 | 6.4 | 0.0 | 0.00 | 0.00 | 0.43 | 76 | 1007.9 |
| 20260505151917 | 15 | 218 | 9.7 | 0.0 | 0.00 | 0.00 | 0.33 | 71 | 1008.0 |
| 20260505150917 | 16 | 175 | 9.7 | 0.0 | 0.00 | 0.00 | 0.15 | 65 | 1007.8 |
| 20260505124917 | 13 | 5 | 6.4 | 0.0 | 0.00 | 0.00 | 0.15 | 81 | 1009.0 |
| 20260505123917 | 13 | 78 | 4.8 | 0.0 | 0.00 | 0.00 | 0.15 | 81 | 1009.1 |
| 20260505122916 | 13 | 113 | 8.0 | 0.0 | 0.00 | 0.00 | 0.15 | 79 | 1009.2 |
| 20260505121917 | 13 | 105 | 6.4 | 0.0 | 0.00 | 0.00 | 0.15 | 80 | 1009.3 |
| 20260505120917 | 13 | 110 | 6.4 | 0.0 | 0.00 | 0.00 | 0.13 | 80 | 1009.2 |
| 20260505115916 | 13 | 135 | 4.8 | 0.0 | 0.00 | 0.00 | 0.13 | 79 | 1009.2 |
| 20260505114916 | 13 | 113 | 0.0 | 0.0 | 0.00 | 0.00 | 0.13 | 77 | 1009.3 |
| 20260505113916 | 13 | 178 | 3.2 | 0.0 | 0.00 | 0.00 | 0.10 | 78 | 1009.4 |
| 20260505112917 | 13 | 50 | 0.0 | 0.0 | 0.00 | 0.00 | 0.10 | 78 | 1009.4 |
| 20260505111916 | 13 | 175 | 0.0 | 0.0 | 0.00 | 0.00 | 0.10 | 78 | 1009.3 |
| 20260505110916 | 14 | 348 | 0.0 | 0.0 | 0.00 | 0.00 | 0.10 | 78 | 1009.3 |
| 20260505101916 | 14 | 145 | 6.4 | 0.0 | 0.00 | 0.00 | 0.03 | 75 | 1009.6 |
| 20260505100916 | 14 | 165 | 8.0 | 0.0 | 0.00 | 0.00 | 0.03 | 72 | 1009.6 |
| 20260505095916 | 15 | 148 | 8.0 | 0.0 | 0.00 | 0.00 | 0.00 | 69 | 1009.6 |
| 20260505094916 | 15 | 148 | 6.4 | 0.0 | 0.00 | 0.00 | 0.00 | 67 | 1009.6 |
| 20260505093917 | 15 | 135 | 4.8 | 0.0 | 0.00 | 0.00 | 0.00 | 66 | 1009.6 |
| 20260505092917 | 15 | 148 | 4.8 | 0.0 | 0.00 | 0.00 | 0.00 | 65 | 1009.6 |
| 20260505091916 | 15 | 170 | 6.4 | 0.0 | 0.00 | 0.00 | 0.00 | 65 | 1009.6 |
| 20260505090916 | 15 | 145 | 4.8 | 0.0 | 0.00 | 0.00 | 0.00 | 64 | 1009.6 |
| 20260505085916 | 15 | 133 | 8.0 | 0.0 | 0.00 | 0.00 | 0.00 | 64 | 1009.6 |
| 20260505084916 | 15 | 125 | 8.0 | 0.0 | 0.00 | 0.00 | 0.00 | 65 | 1009.6 |
| 20260505083916 | 16 | 150 | 6.4 | 0.0 | 0.00 | 0.00 | 0.00 | 64 | 1009.6 |
| 20260505082917 | 16 | 58 | 8.0 | 0.0 | 0.00 | 0.00 | 0.00 | 64 | 1009.5 |
| 20260505081917 | 15 | 65 | 6.4 | 0.0 | 0.00 | 0.00 | 0.00 | 66 | 1009.6 |
| 20260505080916 | 15 | 120 | 6.4 | 0.0 | 0.00 | 0.00 | 0.00 | 66 | 1009.7 |
| 20260505075916 | 15 | 180 | 6.4 | 0.0 | 0.00 | 0.00 | 0.00 | 67 | 1009.8 |
| 20260505074916 | 15 | 43 | 6.4 | 0.0 | 0.00 | 0.00 | 0.00 | 66 | 1009.8 |
| 20260505073916 | 15 | 240 | 4.8 | 0.0 | 0.00 | 0.00 | 0.00 | 69 | 1010.0 |
| 20260505072916 | 14 | 120 | 0.0 | 0.0 | 0.00 | 0.00 | 0.00 | 71 | 1010.0 |
| 20260505071916 | 13 | 8 | 6.4 | 0.0 | 0.00 | 0.00 | 0.00 | 72 | 1010.0 |
| 20260505070916 | 13 | 343 | 3.2 | 0.0 | 0.00 | 0.00 | 0.00 | 77 | 1010.2 |
| 20260505065917 | 13 | 293 | 3.2 | 0.0 | 0.00 | 0.00 | 0.00 | 79 | 1010.3 |
| 20260505064916 | 12 | 190 | 0.0 | 0.0 | 0.00 | 0.00 | 0.00 | 80 | 1010.3 |
| 20260505063917 | 12 | 260 | 0.0 | 0.0 | 0.00 | 0.00 | 0.00 | 82 | 1010.3 |
| 20260505062916 | 12 | 288 | 4.8 | 0.0 | 0.00 | 0.00 | 0.00 | 82 | 1010.4 |
| 20260505061916 | 11 | 158 | 0.0 | 0.0 | 0.00 | 0.00 | 0.00 | 83 | 1010.5 |
| 20260505060917 | 12 | 190 | 0.0 | 0.0 | 0.00 | 0.00 | 0.00 | 82 | 1010.5 |
| 20260505055916 | 11 | 193 | 0.0 | 0.0 | 0.00 | 0.00 | 0.00 | 82 | 1010.4 |
| 20260505054916 | 11 | 278 | 0.0 | 0.0 | 0.00 | 0.00 | 0.00 | 82 | 1010.4 |
| 20260505053916 | 11 | 198 | 3.2 | 0.0 | 0.00 | 0.00 | 0.00 | 83 | 1010.5 |
| 20260505052916 | 10 | 180 | 0.0 | 0.0 | 0.00 | 0.00 | 0.00 | 85 | 1010.3 |
| 20260505051916 | 10 | 158 | 0.0 | 0.0 | 0.00 | 0.00 | 0.00 | 86 | 1010.3 |
| 20260505050917 | 9 | 215 | 0.0 | 0.0 | 0.00 | 0.00 | 0.00 | 87 | 1010.3 |
| 20260505040916 | 8 | 175 | 0.0 | 0.0 | 0.00 | 0.00 | 0.00 | 87 | 1010.6 |
| 20260505035917 | 8 | 205 | 0.0 | 0.0 | 0.00 | 0.00 | 0.00 | 87 | 1010.7 |
| 20260505034916 | 8 | 210 | 0.0 | 0.0 | 0.00 | 0.00 | 0.00 | 88 | 1010.7 |